Temp
0 0 0 0 0 0 0 1 0 2 2 1 0 -0 -0 -0 -0 -1 -1 -1 -0 0 0 1 1 1 1 1 1 1 1 1 2 2 2 2 2 3 3 2 2 2 2 2
0 0 0 1 1 0 0 0 0 1 2 1 0 -0 -1 -1 -1 -2 -1 -1 -1 -0 0 0 1 1 1 1 1 1 1 1 2 2 2 2 2 2 2 2 2 2 2 2
-1 -1 -1 0 2 2 2 1 0 0 1 -1 -1 -2 -2 -2 -2 -2 -2 -1 -0 -0 0 0 1 1 1 1 1 1 1 1 1 2 2 2 2 2 2 2 2 2 2 2
-2 -2 -4 0 0 0 0 0 -0 0 -1 -3 -3 -2 -3 -3 -3 -2 -1 -1 -1 -0 -0 -0 0 0 -0 0 0 1 1 1 1 1 1 1 1 1 1 2 2 2 2 2
-3 -3 0 1 1 -0 -1 -0 -0 -0 -0 -2 -2 -3 -3 -3 -2 -2 -1 -1 -1 -1 -1 -1 -0 -1 -1 -1 -1 -0 -0 -0 0 1 1 1 1 1 1 1 1 1 2 2
-4 -4 -4 -0 -0 -1 -1 -1 -1 -1 -1 -2 -3 -3 -3 -3 -2 -2 -1 -1 -1 -2 -2 -2 -2 -2 -2 -2 -1 -1 -1 -0 -0 0 0 0 1 0 0 1 1 1 1 1
-6 -5 -1 -0 -1 -1 -2 -1 -1 -2 -3 -3 -3 -3 -2 -2 -2 -2 -2 -2 -2 -3 -3 -3 -3 -2 -2 -2 -2 -2 -1 -1 -1 -1 -0 -0 0 -0 0 0 0 0 0 0
-7 -7 -3 -1 -2 -2 -1 -2 -2 -2 -2 -3 -3 -3 -3 -3 -3 -3 -3 -3 -4 -4 -4 -4 -4 -3 -3 -3 -3 -2 -2 -2 -2 -2 -1 -1 -1 -1 -1 -1 -0 -0 -0 -0
-2 -1 -2 -2 -2 -2 -2 -3 -3 -3 -3 -3 -3 -3 -3 -3 -3 -4 -4 -4 -4 -4 -5 -5 -5 -5 -4 -4 -3 -3 -3 -3 -3 -3 -2 -2 -2 -1 -1 -1 -1 -1 -1 -1
-2 -2 -2 -3 -3 -3 -3 -4 -4 -4 -4 -4 -4 -5 -4 -4 -4 -5 -5 -5 -5 -5 -5 -5 -5 -6 -6 -5 -5 -5 -5 -4 -4 -3 -3 -3 -3 -3 -2 -2 -2 -2 -2 -2
-3 -3 -3 -3 -4 -4 -4 -5 -5 -5 -5 -5 -5 -5 -5 -5 -5 -6 -6 -6 -6 -6 -6 -6 -6 -6 -6 -6 -6 -6 -5 -5 -5 -5 -4 -4 -4 -4 -4 -4 -4 -4 -4 -3
-4 -4 -5 -5 -5 -5 -5 -6 -6 -6 -6 -6 -6 -6 -6 -6 -7 -7 -7 -7 -7 -7 -7 -7 -7 -7 -7 -7 -7 -7 -6 -6 -6 -6 -6 -5 -5 -5 -5 -5 -5 -5 -5 -5
-4 -5 -5 -5 -6 -6 -6 -6 -7 -7 -7 -7 -7 -7 -8 -8 -8 -8 -8 -8 -8 -8 -8 -8 -8 -8 -8 -7 -7 -7 -7 -7 -7 -7 -7 -6 -6 -6 -6 -6 -7 -7 -7 -7
-5 -6 -6 -6 -7 -7 -7 -7 -7 -7 -7 -8 -8 -8 -9 -9 -9 -9 -9 -9 -9 -9 -8 -8 -8 -8 -8 -8 -8 -8 -8 -8 -8 -8 -8 -8 -8 -7 -7 -7 -7 -8 -9 -8
-6 -7 -7 -7 -8 -8 -8 -8 -8 -8 -9 -9 -9 -9 -9 -9 -9 -9 -9 -9 -9 -9 -9 -9 -9 -9 -9 -9 -9 -9 -9 -9 -9 -9 -9 -9 -8 -8 -9 -9 -9 -9 -8 -9
-6 -7 -7 -8 -8 -9 -9 -9 -9 -10 -10 -10 -10 -11 -10 -10 -10 -10 -10 -9 -9 -9 -9 -9 -9 -9 -10 -10 -9 -9 -10 -10 -10 -10 -10 -10 -9 -9 -9 -9 -9 -9 -9 -9
-8 -9 -9 -9 -10 -10 -10 -10 -10 -10 -11 -11 -11 -10 -10 -10 -10 -10 -10 -10 -10 -10 -10 -11 -11 -11 -12 -12 -12 -11 -11 -11 -12 -11 -11 -11 -10 -10 -10 -9 -9 -9 -9 -9
-10 -10 -10 -11 -11 -11 -12 -12 -11 -11 -11 -11 -11 -11 -11 -10 -10 -10 -10 -10 -10 -11 -12 -12 -13 -13 -13 -13 -13 -13 -13 -13 -13 -13 -13 -12 -12 -11 -10 -10 -10 -10 -9 -9
-11 -11 -11 -11 -11 -11 -11 -11 -11 -12 -12 -12 -12 -11 -11 -11 -11 -11 -12 -12 -12 -12 -12 -13 -13 -13 -13 -13 -13 -13 -13 -13 -13 -13 -13 -13 -13 -13 -12 -12 -11 -11 -10 -10
-11 -12 -12 -12 -12 -12 -12 -12 -12 -12 -12 -13 -13 -12 -12 -12 -12 -12 -13 -12 -13 -13 -13 -13 -14 -14 -14 -14 -14 -13 -13 -13 -13 -13 -13 -13 -13 -13 -13 -12 -12 -12 -12 -11
-12 -12 -12 -12 -12 -12 -12 -12 -12 -13 -13 -13 -13 -13 -13 -13 -13 -13 -13 -13 -13 -13 -14 -14 -14 -14 -14 -14 -14 -14 -14 -14 -13 -13 -13 -13 -13 -13 -13 -13 -12 -12 -12 -12
-11 -11 -12 -12 -11 -11 -11 -12 -12 -13 -14 -14 -14 -14 -14 -13 -14 -14 -14 -14 -14 -14 -14 -14 -14 -14 -14 -14 -14 -14 -14 -14 -14 -13 -13 -13 -13 -13 -13 -13 -13 -13 -13 -13
-11 -12 -12 -12 -12 -12 -12 -12 -13 -13 -14 -14 -14 -14 -14 -14 -14 -14 -14 -14 -14 -14 -14 -14 -14 -14 -14 -14 -14 -14 -14 -14 -14 -14 -13 -13 -14 -14 -14 -13 -13 -13 -13 -13
-12 -12 -12 -12 -12 -13 -12 -13 -14 -14 -14 -14 -14 -14 -15 -15 -15 -15 -15 -15 -15 -15 -14 -14 -14 -14 -14 -14 -14 -14 -14 -14 -14 -14 -14 -14 -14 -14 -13 -13 -13 -14 -14 -13
-12 -12 -13 -13 -13 -13 -13 -14 -14 -14 -14 -14 -14 -15 -15 -15 -15 -15 -15 -15 -15 -15 -14 -14 -14 -14 -14 -14 -14 -14 -14 -14 -14 -14 -14 -14 -14 -13 -13 -13 -13 -13 -13 -13
-13 -13 -13 -13 -14 -14 -14 -14 -14 -14 -15 -15 -15 -15 -15 -15 -15 -15 -15 -15 -15 -15 -15 -15 -14 -14 -14 -14 -14 -14 -14 -14 -14 -14 -14 -14 -13 -13 -13 -13 -13 -13 -13 -13
-13 -13 -13 -14 -14 -14 -15 -15 -15 -15 -15 -15 -15 -15 -15 -15 -15 -15 -15 -15 -15 -15 -15 -15 -15 -15 -14 -14 -14 -14 -14 -14 -14 -14 -14 -14 -13 -13 -13 -13 -14 -14 -14 -14
Height
3107 3107 3107 3107 3107 3107 3105 3106 3105 3103 3105 3110 3110 3109 3108 3107 3106 3105 3105 3104 3103 3101 3099 3096 3094 3092 3088 3086 3083 3079 3078 3075 3073 3072 3071 3070 3069 3067 3067 3066 3066 3065 3065 3064
3102 3101 3101 3099 3099 3099 3099 3098 3097 3098 3097 3102 3105 3104 3102 3102 3101 3101 3101 3100 3098 3096 3093 3090 3088 3086 3083 3081 3077 3073 3071 3069 3067 3065 3064 3062 3061 3060 3059 3059 3058 3057 3057 3056
3099 3098 3097 3093 3090 3090 3090 3089 3092 3091 3093 3096 3097 3096 3097 3096 3097 3097 3096 3095 3093 3090 3088 3085 3082 3079 3077 3075 3072 3068 3064 3062 3060 3057 3056 3055 3053 3052 3051 3050 3050 3049 3048 3048
3097 3097 3096 3087 3086 3085 3085 3085 3086 3085 3084 3087 3089 3091 3091 3092 3092 3092 3091 3089 3087 3085 3083 3080 3077 3073 3070 3067 3064 3061 3058 3055 3052 3050 3048 3046 3045 3044 3042 3041 3040 3039 3039 3038
3094 3092 3087 3084 3082 3083 3082 3083 3082 3082 3081 3082 3085 3087 3087 3088 3088 3087 3086 3084 3082 3079 3076 3073 3070 3066 3063 3060 3057 3054 3051 3048 3045 3042 3040 3038 3036 3035 3034 3033 3032 3030 3028 3028
3089 3089 3084 3079 3079 3079 3079 3080 3079 3080 3081 3082 3083 3084 3085 3085 3084 3083 3081 3079 3076 3072 3069 3066 3063 3060 3057 3054 3050 3047 3044 3041 3038 3035 3032 3031 3028 3026 3024 3022 3022 3021 3020 3018
3089 3088 3078 3076 3077 3077 3079 3081 3076 3078 3080 3082 3082 3083 3082 3081 3079 3077 3075 3073 3069 3065 3062 3060 3057 3054 3051 3048 3044 3040 3037 3034 3031 3028 3025 3022 3021 3018 3016 3014 3012 3010 3009 3008
3084 3085 3079 3076 3076 3078 3076 3073 3074 3076 3077 3078 3078 3077 3075 3073 3072 3070 3067 3065 3063 3061 3057 3054 3050 3048 3045 3042 3039 3035 3031 3027 3024 3021 3017 3015 3013 3010 3007 3004 3003 3001 2999 2998
3077 3075 3075 3074 3073 3073 3073 3073 3074 3074 3073 3072 3071 3069 3068 3066 3065 3062 3061 3059 3057 3055 3052 3048 3044 3040 3038 3035 3032 3029 3025 3021 3017 3014 3010 3007 3004 3002 2999 2995 2993 2992 2989 2988
3070 3070 3069 3069 3071 3070 3070 3069 3067 3067 3067 3066 3064 3063 3061 3059 3057 3055 3054 3052 3050 3049 3047 3044 3040 3035 3032 3029 3025 3022 3019 3015 3011 3007 3004 2999 2996 2992 2990 2986 2984 2981 2978 2976
3063 3064 3064 3064 3063 3064 3065 3064 3062 3060 3058 3058 3058 3056 3055 3052 3050 3048 3047 3045 3043 3041 3039 3036 3033 3029 3025 3022 3019 3016 3013 3009 3004 3000 2996 2993 2988 2984 2981 2977 2974 2972 2968 2966
3054 3056 3056 3058 3059 3057 3056 3056 3056 3054 3052 3051 3050 3049 3048 3046 3044 3042 3040 3037 3035 3032 3029 3027 3024 3022 3018 3014 3010 3007 3005 3002 2998 2994 2990 2985 2981 2979 2971 2969 2965 2962 2960 2958
3049 3048 3048 3047 3048 3051 3050 3048 3048 3047 3045 3044 3043 3042 3040 3039 3037 3034 3031 3029 3027 3024 3021 3018 3016 3013 3008 3005 3002 2998 2993 2991 2988 2985 2981 2977 2973 2969 2967 2962 2956 2954 2951 2949
3042 3042 3042 3042 3041 3042 3042 3040 3039 3039 3038 3036 3035 3035 3033 3032 3030 3027 3024 3021 3019 3017 3014 3009 3005 3002 2998 2995 2991 2987 2983 2980 2976 2973 2971 2968 2964 2961 2956 2954 2952 2950 2945 2942
3034 3034 3034 3033 3032 3033 3034 3033 3032 3031 3030 3029 3028 3027 3026 3025 3022 3020 3017 3012 3010 3007 3004 2999 2995 2991 2987 2983 2978 2974 2971 2968 2964 2962 2959 2956 2953 2950 2947 2944 2941 2939 2938 2936
3027 3027 3026 3026 3026 3025 3026 3026 3026 3025 3024 3023 3022 3021 3019 3016 3013 3012 3008 3004 2999 2997 2994 2989 2984 2980 2976 2971 2966 2962 2959 2955 2951 2948 2946 2944 2941 2938 2935 2933 2930 2928 2926 2925
3018 3019 3020 3021 3021 3020 3019 3019 3019 3019 3018 3017 3016 3014 3011 3008 3004 3001 2998 2993 2989 2986 2982 2977 2972 2969 2965 2960 2955 2950 2947 2944 2940 2936 2933 2930 2927 2925 2922 2919 2917 2915 2914 2913
3014 3014 3013 3013 3015 3015 3014 3014 3014 3012 3011 3011 3008 3004 3000 2996 2992 2989 2986 2982 2978 2975 2973 2967 2963 2959 2956 2951 2946 2942 2938 2934 2930 2926 2921 2917 2913 2910 2907 2904 2902 2899 2899 2899
3009 3010 3010 3010 3011 3011 3010 3009 3007 3005 3003 3000 2996 2992 2989 2985 2981 2977 2973 2969 2966 2963 2963 2958 2954 2950 2947 2943 2938 2933 2929 2924 2920 2916 2912 2906 2902 2898 2893 2890 2886 2883 2881 2881
3006 3007 3007 3007 3006 3005 3003 3001 2998 2994 2992 2988 2984 2981 2977 2974 2970 2966 2962 2958 2957 2954 2950 2947 2944 2942 2938 2934 2929 2924 2919 2914 2909 2905 2900 2895 2890 2885 2881 2877 2873 2869 2866 2864
3000 3001 3001 2999 2998 2996 2993 2990 2986 2983 2980 2977 2973 2969 2965 2962 2959 2955 2951 2947 2949 2944 2940 2937 2934 2932 2928 2923 2919 2915 2910 2905 2900 2894 2889 2884 2878 2874 2869 2865 2861 2857 2854 2851
2996 2995 2993 2992 2989 2987 2985 2981 2977 2972 2968 2965 2962 2958 2954 2951 2948 2945 2943 2939 2936 2933 2930 2927 2925 2921 2917 2912 2908 2903 2899 2894 2889 2884 2878 2873 2867 2861 2857 2852 2848 2845 2842 2839
2990 2988 2985 2983 2980 2976 2973 2970 2966 2961 2957 2954 2951 2948 2944 2941 2937 2933 2930 2930 2925 2922 2919 2916 2913 2910 2905 2901 2896 2892 2887 2883 2878 2873 2868 2862 2856 2851 2845 2841 2837 2834 2831 2828
2981 2978 2974 2972 2968 2965 2961 2959 2954 2950 2946 2943 2940 2938 2934 2930 2927 2925 2921 2918 2916 2913 2908 2905 2902 2898 2894 2889 2885 2881 2876 2871 2867 2862 2856 2851 2845 2840 2835 2830 2826 2824 2821 2818
2970 2967 2964 2961 2957 2953 2949 2945 2941 2939 2935 2932 2930 2928 2925 2921 2916 2914 2911 2907 2904 2900 2897 2894 2890 2887 2883 2879 2874 2870 2866 2861 2857 2851 2846 2840 2835 2830 2825 2821 2817 2814 2811 2809
2958 2955 2952 2949 2944 2941 2937 2933 2928 2926 2923 2920 2918 2916 2914 2910 2906 2900 2897 2894 2890 2887 2884 2881 2878 2875 2872 2869 2865 2860 2855 2851 2846 2841 2836 2830 2825 2821 2817 2813 2809 2806 2803 2800
2946 2943 2939 2936 2934 2930 2925 2921 2917 2915 2912 2908 2904 2903 2900 2897 2892 2888 2884 2881 2878 2874 2871 2869 2867 2864 2861 2858 2854 2851 2846 2841 2836 2831 2826 2821 2817 2813 2809 2805 2801 2798 2795 2792
Wind_Speed
11 14 15 17 17 17 20 22 21 27 25 20 22 24 23 29 27 17 13 12 14 17 18 20 21 23 24 26 27 27 26 26 26 25 26 26 26 27 28 28 28 28 27 27
11 13 17 22 22 24 26 28 32 32 33 27 24 26 21 18 14 12 12 13 16 19 22 24 25 25 24 25 26 26 27 27 27 28 28 28 27 26 27 28 29 30 29 30
5 8 12 19 18 23 30 33 31 34 33 27 24 23 20 16 14 13 13 17 21 24 26 27 27 27 26 25 24 25 26 26 27 28 28 29 29 27 27 28 29 31 31 32
7 10 3 5 7 10 10 8 12 15 19 20 21 17 14 13 14 14 17 22 25 28 28 29 28 27 27 27 26 26 26 25 26 27 27 27 29 29 28 28 28 30 32 33
5 6 15 20 17 14 11 12 12 10 9 10 11 10 13 13 14 18 23 27 30 31 30 28 27 27 28 27 27 28 28 27 27 27 27 27 28 27 29 31 31 30 31 32
10 5 6 5 4 5 7 9 8 5 4 6 7 10 13 15 20 25 30 30 29 28 27 27 26 26 27 27 26 26 26 27 27 28 28 29 29 30 29 29 30 32 33 33
18 8 9 13 11 9 6 6 5 5 6 7 10 13 17 22 28 29 29 27 26 25 25 25 25 25 25 25 25 26 26 26 26 27 28 28 29 30 31 31 31 32 33 34
11 8 9 9 7 9 8 8 7 7 7 11 17 21 23 23 24 25 24 22 22 22 23 25 26 25 24 25 25 26 26 27 27 28 28 29 30 31 31 32 32 32 34 33
10 5 8 7 9 10 10 10 10 14 20 21 24 25 26 25 25 24 21 20 20 21 20 23 25 27 26 26 26 27 27 28 28 28 29 30 30 30 31 33 33 32 34 34
20 17 18 19 14 15 18 20 20 23 26 24 24 22 23 23 22 21 21 21 21 21 22 23 25 27 28 28 28 28 28 30 30 29 29 30 31 32 31 32 32 32 33 32
26 25 24 23 21 22 23 26 26 27 24 23 24 24 23 21 20 20 22 23 24 25 26 28 29 31 32 31 30 28 26 28 29 30 31 30 32 34 32 31 30 29 30 30
32 27 27 26 28 24 24 25 25 24 24 24 23 23 21 21 22 22 23 25 26 28 30 30 31 32 34 34 34 33 30 29 29 30 31 31 30 30 34 31 29 27 26 26
22 21 24 22 19 24 25 24 23 24 27 27 25 22 21 21 22 23 25 28 29 29 31 34 35 34 35 35 36 37 37 36 34 33 33 32 31 30 27 28 29 27 25 24
28 26 23 25 29 26 25 25 28 28 24 22 23 24 24 24 24 26 27 30 32 35 37 39 40 40 41 42 41 40 41 40 41 39 37 36 34 32 30 28 26 24 26 26
24 26 26 25 25 24 25 24 23 23 24 23 23 23 24 23 24 26 29 34 38 39 39 40 43 43 44 45 46 46 45 44 43 42 41 41 40 38 36 33 32 30 28 27
20 22 22 22 21 20 21 23 22 18 18 18 20 22 25 28 30 32 34 38 40 37 37 39 40 40 40 41 41 42 42 43 45 46 45 43 42 43 42 41 39 36 38 37
23 20 19 20 21 21 17 15 14 15 18 20 22 27 31 35 37 37 36 35 35 35 35 36 38 38 38 38 40 40 40 39 39 41 44 46 46 45 45 46 44 43 39 34
20 21 20 17 12 10 10 12 16 20 23 27 31 35 37 36 35 35 35 34 36 35 31 33 34 34 32 32 34 36 37 37 37 37 38 38 40 44 47 48 49 48 44 42
11 10 9 11 13 15 17 20 25 30 33 35 38 37 36 36 36 36 35 34 34 35 30 33 32 31 32 33 36 37 38 38 38 37 38 39 40 39 40 40 41 44 47 46
9 11 12 15 19 23 28 31 35 38 38 38 39 39 39 37 36 35 34 35 33 33 33 34 31 30 32 34 36 37 37 38 38 39 39 40 41 41 41 40 40 41 40 39
10 14 17 20 23 26 30 33 35 37 37 36 38 38 38 38 36 35 34 35 30 31 32 33 32 33 35 37 37 36 36 37 37 38 41 41 42 40 39 39 40 37 38 38
14 18 21 24 27 29 31 35 37 38 38 38 37 37 37 37 36 35 32 34 34 34 33 34 35 36 38 39 39 38 38 38 39 40 41 42 40 39 41 40 37 34 33 34
22 25 28 30 32 35 36 37 36 35 37 37 37 35 36 37 36 35 35 32 35 34 35 36 36 36 38 39 40 39 39 39 40 41 41 41 40 40 40 36 34 33 31 33
27 30 32 33 34 36 38 36 35 36 36 37 36 33 33 32 33 34 36 37 36 36 38 38 37 36 39 38 37 37 38 38 39 40 41 40 41 37 35 34 32 30 30 29
33 36 37 37 38 38 38 37 36 35 34 35 33 31 31 32 37 39 40 42 43 43 43 41 40 36 35 33 35 36 36 36 36 38 38 40 38 34 32 30 29 28 29 28
38 39 39 38 37 37 36 36 36 33 31 30 30 32 36 39 40 42 42 42 42 42 40 38 37 36 32 31 33 32 36 34 35 37 36 37 33 30 31 30 29 27 26 25
43 43 41 39 37 34 35 35 35 33 33 36 37 37 39 39 38 38 38 37 36 37 37 36 34 34 33 33 33 33 34 34 36 34 36 33 29 30 31 30 28 27 26 24
Wind_Direction
260 267 269 268 266 261 252 255 251 270 266 260 264 270 277 285 289 279 267 290 306 311 309 305 305 305 308 310 304 302 297 294 291 288 286 288 287 284 279 277 276 276 277 277
270 268 271 272 267 263 261 257 259 261 268 269 267 270 269 277 279 262 273 299 313 318 317 312 304 304 307 307 303 298 296 293 289 285 283 285 287 286 282 278 276 274 274 276
273 283 290 282 269 257 261 262 265 265 273 266 272 271 274 274 255 256 285 305 312 314 313 311 310 306 303 302 302 300 297 295 293 289 286 286 283 283 281 280 279 278 275 275
276 294 264 265 280 273 271 263 267 279 270 257 254 268 255 240 245 269 297 308 311 310 307 304 303 303 303 301 300 300 302 299 294 293 290 287 287 284 280 276 276 278 280 279
244 225 277 274 273 262 265 268 273 272 245 225 237 228 227 238 265 289 302 309 312 310 308 308 306 308 309 309 308 306 304 302 298 293 291 288 285 286 286 284 280 275 273 275
222 226 231 247 299 292 282 273 269 254 234 222 220 217 245 271 287 297 303 305 307 308 310 312 314 314 313 314 312 309 305 302 299 296 294 291 289 286 283 280 279 280 282 279
245 264 271 250 263 254 238 245 256 254 250 256 267 278 284 291 296 300 303 303 307 310 311 312 313 313 314 315 315 313 311 308 305 301 297 293 291 289 288 285 283 280 278 278
212 228 266 249 249 243 265 257 256 259 260 274 285 292 294 296 298 301 303 303 304 306 309 311 312 313 314 315 315 315 314 313 310 307 302 298 295 294 292 288 286 283 281 281
224 245 275 280 278 273 267 257 254 275 282 283 285 288 290 293 298 298 296 295 299 302 304 309 312 312 313 314 314 314 314 313 312 312 309 305 299 294 292 291 291 289 287 286
268 273 271 271 277 277 273 270 272 282 290 288 288 289 293 295 294 291 290 291 293 294 297 300 302 305 309 312 314 316 315 315 314 312 309 309 307 303 297 292 291 291 290 290
273 275 276 274 275 282 278 273 280 286 285 289 292 293 293 288 283 281 283 286 291 297 302 305 307 309 309 309 308 308 308 312 315 316 313 309 308 305 302 300 297 294 292 292
275 275 272 273 283 280 273 276 279 280 283 287 290 289 285 280 277 279 283 287 293 300 304 307 309 310 309 310 310 310 310 307 306 310 311 310 306 303 302 301 300 300 298 297
278 274 271 270 272 283 276 274 272 278 288 289 286 284 281 275 275 279 285 292 299 302 304 306 306 306 306 306 306 306 305 304 304 302 302 302 300 299 297 296 300 298 298 298
275 274 266 270 281 277 276 279 284 285 281 282 285 282 280 283 287 290 291 293 295 298 300 300 300 300 301 302 301 301 299 297 297 297 296 295 296 296 292 291 288 287 292 295
267 269 273 279 280 279 278 277 277 280 283 284 286 287 288 290 292 293 293 293 294 295 296 296 296 297 297 297 297 296 295 293 292 293 294 294 293 291 292 292 287 286 282 283
266 265 265 267 272 277 279 279 279 279 281 284 290 293 292 291 290 290 291 294 294 294 294 294 296 298 300 300 300 299 297 294 291 289 290 290 290 291 291 289 288 289 283 281
271 268 270 276 280 279 271 269 276 280 281 283 286 288 290 291 290 291 292 294 295 297 300 304 303 304 306 307 306 306 307 308 307 302 297 294 293 292 290 290 289 287 286 287
276 276 275 268 259 259 266 275 283 288 289 290 291 292 294 294 294 293 294 294 294 297 307 305 305 305 308 310 309 309 309 310 310 309 307 304 298 294 291 288 287 287 284 281
273 264 263 267 273 280 284 290 296 298 301 301 299 298 298 298 298 296 297 296 298 302 306 302 304 306 308 308 308 307 308 307 308 309 309 309 307 302 297 292 289 287 286 284
293 296 300 302 302 303 302 302 302 302 307 306 304 303 301 301 300 298 294 293 298 301 297 298 301 303 305 308 308 309 309 309 308 309 310 309 308 306 302 300 300 296 288 281
310 310 308 306 305 305 306 306 304 303 303 301 302 301 300 302 302 299 297 298 301 297 295 296 298 301 305 309 310 307 307 308 307 309 312 310 308 305 303 300 301 296 294 290
304 304 300 300 304 309 312 312 309 304 300 299 299 299 298 299 297 296 295 296 298 300 300 299 300 302 304 305 306 308 306 308 311 310 312 312 309 305 305 303 298 293 297 294
303 304 302 304 307 309 311 312 309 302 297 295 296 299 301 299 294 294 294 294 296 303 302 302 302 302 301 302 305 305 303 304 307 310 310 311 309 307 305 303 300 295 293 298
301 300 300 301 304 306 309 309 304 300 293 293 296 300 303 300 291 287 289 295 299 299 301 302 303 302 303 304 304 304 306 306 307 308 310 311 311 309 306 303 300 297 295 295
302 300 302 305 305 306 307 305 299 298 294 294 294 294 293 293 294 295 293 293 292 293 294 295 298 299 301 303 303 304 306 308 308 308 309 312 312 309 309 307 306 302 293 294
299 300 303 303 303 306 303 299 298 297 297 293 291 292 291 293 294 293 293 292 291 291 290 292 292 294 297 303 307 308 311 309 310 310 311 313 309 308 307 305 302 302 300 291
299 300 301 300 302 299 295 294 295 297 296 295 294 294 295 299 301 301 300 299 297 299 296 290 291 290 293 299 305 309 311 312 312 310 315 311 307 307 306 306 303 300 300 295